Time,TemperatureF,DewpointF,PressureIn,WindDirection,WindDirectionDegrees,WindSpeedMPH,WindSpeedGustMPH,Humidity,HourlyPrecipIn,Conditions,Clouds,dailyrainin,SoftwareType,DateUTC
2013-01-02 00:00:00,34.1,34.1,29.84,SSW,202,5.0,15.0,100,0.03,,SKC,0.00,VWS V14.01,2013-01-02 05:00:00,
2013-01-02 00:15:00,34.3,34.0,29.84,South,180,5.0,15.0,99,0.02,,SKC,0.00,VWS V14.01,2013-01-02 05:15:00,
2013-01-02 00:30:00,34.1,33.3,29.83,South,180,2.0,17.0,97,0.01,,SKC,0.00,VWS V14.01,2013-01-02 05:30:00,
2013-01-02 00:45:00,34.1,32.8,29.83,South,180,6.0,17.0,95,0.01,,SKC,0.00,VWS V14.01,2013-01-02 05:45:00,
2013-01-02 01:00:00,34.3,32.5,29.82,South,180,6.0,18.0,93,0.00,,SKC,0.00,VWS V14.01,2013-01-02 06:00:00,
2013-01-02 01:15:00,34.3,32.2,29.82,SSW,202,4.0,15.0,92,0.00,,SKC,0.00,VWS V14.01,2013-01-02 06:15:00,
2013-01-02 01:30:00,34.4,32.0,29.83,SSW,202,6.0,20.0,91,0.00,,SKC,0.00,VWS V14.01,2013-01-02 06:30:00,
2013-01-02 01:45:00,34.0,31.9,29.83,SSW,202,2.0,13.0,92,0.00,,SKC,0.00,VWS V14.01,2013-01-02 06:45:00,
2013-01-02 02:00:00,33.8,32.0,29.83,South,180,2.0,12.0,93,0.00,,SKC,0.00,VWS V14.01,2013-01-02 07:00:00,
2013-01-02 02:15:00,33.4,31.9,29.84,SW,225,2.0,10.0,94,0.00,,SKC,0.00,VWS V14.01,2013-01-02 07:15:00,
2013-01-02 02:30:00,32.8,31.5,29.86,SSW,202,2.0,9.0,95,0.00,,SKC,0.00,VWS V14.01,2013-01-02 07:30:00,
2013-01-02 02:45:00,32.4,31.4,29.86,South,180,1.0,6.0,96,0.00,,SKC,0.00,VWS V14.01,2013-01-02 07:45:00,
2013-01-02 03:00:00,31.8,31.0,29.86,NE,45,2.0,13.0,97,0.00,,SKC,0.00,VWS V14.01,2013-01-02 08:00:00,
2013-01-02 03:15:00,31.6,31.1,29.86,SSW,202,2.0,15.0,98,0.00,,SKC,0.00,VWS V14.01,2013-01-02 08:15:00,
2013-01-02 03:30:00,31.5,31.2,29.85,SSW,202,1.0,6.0,99,0.00,,SKC,0.00,VWS V14.01,2013-01-02 08:30:00,
2013-01-02 03:45:00,31.2,31.0,29.87,SSW,202,1.0,10.0,99,0.00,,SKC,0.00,VWS V14.01,2013-01-02 08:45:00,
2013-01-02 04:00:00,30.7,30.5,29.85,SSW,202,3.0,12.0,99,0.00,,SKC,0.00,VWS V14.01,2013-01-02 09:00:00,
2013-01-02 04:15:00,30.3,30.0,29.84,SSW,202,2.0,11.0,99,0.00,,SKC,0.00,VWS V14.01,2013-01-02 09:15:00,
2013-01-02 04:30:00,30.3,30.0,29.83,NNW,338,1.0,10.0,99,0.00,,SKC,0.00,VWS V14.01,2013-01-02 09:30:00,
2013-01-02 04:45:00,30.0,29.2,29.84,SW,225,4.0,13.0,97,0.00,,SKC,0.00,VWS V14.01,2013-01-02 09:45:00,
2013-01-02 05:00:00,30.1,29.1,29.85,SSE,158,1.0,6.0,96,0.00,,SKC,0.00,VWS V14.01,2013-01-02 10:00:00,
2013-01-02 05:15:00,30.1,28.8,29.86,SSW,202,3.0,12.0,95,0.00,,SKC,0.00,VWS V14.01,2013-01-02 10:15:00,
2013-01-02 05:30:00,30.4,28.4,29.86,South,180,3.0,13.0,92,0.00,,SKC,0.00,VWS V14.01,2013-01-02 10:30:00,
2013-01-02 05:45:00,30.6,28.0,29.87,South,180,3.0,14.0,90,0.00,,SKC,0.00,VWS V14.01,2013-01-02 10:45:00,
2013-01-02 06:00:00,29.1,27.1,29.88,SSW,202,6.0,19.0,92,0.00,,SKC,0.00,VWS V14.01,2013-01-02 11:00:00,
2013-01-02 06:15:00,29.3,27.3,29.90,SSW,202,3.0,14.0,92,0.00,,SKC,0.00,VWS V14.01,2013-01-02 11:15:00,
2013-01-02 06:30:00,29.0,27.0,29.91,SSW,202,4.0,14.0,92,0.00,,SKC,0.00,VWS V14.01,2013-01-02 11:30:00,
2013-01-02 06:45:00,28.8,26.8,29.92,SSW,202,4.0,20.0,92,0.00,,SKC,0.00,VWS V14.01,2013-01-02 11:45:00,
2013-01-02 07:00:00,28.5,26.7,29.92,SSW,202,1.0,13.0,93,0.00,,SKC,0.00,VWS V14.01,2013-01-02 12:00:00,
2013-01-02 07:15:00,28.5,26.7,29.92,SSW,202,2.0,8.0,93,0.00,,SKC,0.00,VWS V14.01,2013-01-02 12:15:00,
2013-01-02 07:30:00,28.7,26.9,29.93,SSW,202,2.0,12.0,93,0.00,,SKC,0.00,VWS V14.01,2013-01-02 12:30:00,
2013-01-02 07:45:00,28.5,26.5,29.93,SSW,202,2.0,12.0,92,0.00,,SKC,0.00,VWS V14.01,2013-01-02 12:45:00,
2013-01-02 08:00:00,28.2,26.2,29.95,SSW,202,1.0,10.0,92,0.00,,SKC,0.00,VWS V14.01,2013-01-02 13:00:00,
2013-01-02 08:15:00,27.8,26.0,29.95,South,180,2.0,11.0,93,0.00,,SKC,0.00,VWS V14.01,2013-01-02 13:15:00,
2013-01-02 08:30:00,27.5,25.8,29.95,North,0,2.0,9.0,93,0.00,,SKC,0.00,VWS V14.01,2013-01-02 13:30:00,
2013-01-02 08:45:00,27.5,25.8,29.96,ESE,112,4.0,21.0,93,0.00,,SKC,0.00,VWS V14.01,2013-01-02 13:45:00,
2013-01-02 09:00:00,27.5,25.5,29.96,South,180,5.0,17.0,92,0.00,,SKC,0.00,VWS V14.01,2013-01-02 14:00:00,
2013-01-02 09:15:00,27.5,25.5,29.98,SSW,202,3.0,13.0,92,0.00,,SKC,0.00,VWS V14.01,2013-01-02 14:15:00,
2013-01-02 09:30:00,27.5,25.5,29.99,SSE,158,2.0,7.0,92,0.00,,SKC,0.00,VWS V14.01,2013-01-02 14:30:00,
2013-01-02 09:45:00,27.5,25.5,29.99,ESE,112,2.0,7.0,92,0.00,,SKC,0.00,VWS V14.01,2013-01-02 14:45:00,
2013-01-02 10:00:00,27.3,25.3,30.00,NE,45,2.0,13.0,92,0.00,,SKC,0.00,VWS V14.01,2013-01-02 15:00:00,
2013-01-02 10:15:00,27.3,25.3,30.00,SSW,202,1.0,15.0,92,0.00,,SKC,0.00,VWS V14.01,2013-01-02 15:15:00,
2013-01-02 10:30:00,27.6,25.3,30.00,SSW,202,2.0,9.0,91,0.00,,SKC,0.00,VWS V14.01,2013-01-02 15:30:00,
2013-01-02 10:45:00,27.5,25.2,30.00,SSW,202,2.0,16.0,91,0.00,,SKC,0.00,VWS V14.01,2013-01-02 15:45:00,
2013-01-02 11:00:00,27.5,25.0,30.01,SSE,158,1.0,9.0,90,0.00,,SKC,0.00,VWS V14.01,2013-01-02 16:00:00,
2013-01-02 11:15:00,27.3,24.8,30.01,SSW,202,1.0,13.0,90,0.00,,SKC,0.00,VWS V14.01,2013-01-02 16:15:00,
2013-01-02 11:30:00,27.6,24.8,30.00,SSE,158,2.0,10.0,89,0.00,,SKC,0.00,VWS V14.01,2013-01-02 16:30:00,
2013-01-02 11:45:00,27.5,24.7,29.99,SSW,202,4.0,16.0,89,0.00,,SKC,0.00,VWS V14.01,2013-01-02 16:45:00,
2013-01-02 12:00:00,27.9,24.8,29.98,West,270,2.0,13.0,88,0.00,,SKC,0.00,VWS V14.01,2013-01-02 17:00:00,
2013-01-02 12:15:00,27.8,24.7,29.98,SW,225,4.0,13.0,88,0.00,,SKC,0.00,VWS V14.01,2013-01-02 17:15:00,
2013-01-02 12:30:00,27.5,24.4,29.98,SSW,202,6.0,17.0,88,0.00,,SKC,0.00,VWS V14.01,2013-01-02 17:30:00,
2013-01-02 12:45:00,27.5,24.1,29.96,SSW,202,7.0,16.0,87,0.00,,SKC,0.00,VWS V14.01,2013-01-02 17:45:00,
2013-01-02 13:00:00,27.5,23.6,29.96,SW,225,8.0,21.0,85,0.00,,SKC,0.00,VWS V14.01,2013-01-02 18:00:00,
2013-01-02 13:15:00,27.5,23.3,29.95,SSW,202,8.0,25.0,84,0.00,,SKC,0.00,VWS V14.01,2013-01-02 18:15:00,
2013-01-02 13:30:00,27.3,22.8,29.97,SSW,202,6.0,20.0,83,0.00,,SKC,0.00,VWS V14.01,2013-01-02 18:30:00,
2013-01-02 13:45:00,27.5,22.5,29.95,SSW,202,8.0,25.0,81,0.00,,SKC,0.00,VWS V14.01,2013-01-02 18:45:00,
2013-01-02 14:00:00,27.6,22.5,29.96,SSW,202,8.0,22.0,81,0.00,,SKC,0.00,VWS V14.01,2013-01-02 19:00:00,
2013-01-02 14:15:00,28.1,23.0,29.97,SSW,202,6.0,19.0,81,0.00,,SKC,0.00,VWS V14.01,2013-01-02 19:15:00,
2013-01-02 14:30:00,27.9,23.1,29.97,South,180,6.0,19.0,82,0.00,,SKC,0.00,VWS V14.01,2013-01-02 19:30:00,
2013-01-02 14:45:00,28.5,23.4,29.99,SW,225,6.0,18.0,81,0.00,,SKC,0.00,VWS V14.01,2013-01-02 19:45:00,
2013-01-02 15:00:00,28.5,23.4,29.97,SSW,202,3.0,19.0,81,0.00,,SKC,0.00,VWS V14.01,2013-01-02 20:00:00,
2013-01-02 15:15:00,29.0,23.6,29.97,SSW,202,3.0,13.0,80,0.00,,SKC,0.00,VWS V14.01,2013-01-02 20:15:00,
2013-01-02 15:30:00,28.8,23.1,29.99,SSW,202,3.0,13.0,79,0.00,,SKC,0.00,VWS V14.01,2013-01-02 20:30:00,
2013-01-02 15:45:00,28.2,22.8,30.01,SSW,202,6.0,17.0,80,0.00,,SKC,0.00,VWS V14.01,2013-01-02 20:45:00,
2013-01-02 16:00:00,28.2,22.5,30.01,SSW,202,3.0,14.0,79,0.00,,SKC,0.00,VWS V14.01,2013-01-02 21:00:00,
2013-01-02 16:15:00,28.1,22.4,30.02,SSW,202,4.0,14.0,79,0.00,,SKC,0.00,VWS V14.01,2013-01-02 21:15:00,
2013-01-02 16:30:00,27.8,22.1,30.02,SSW,202,4.0,14.0,79,0.00,,SKC,0.00,VWS V14.01,2013-01-02 21:30:00,
2013-01-02 16:45:00,27.6,21.0,30.02,SW,225,3.0,12.0,76,0.00,,SKC,0.00,VWS V14.01,2013-01-02 21:45:00,
2013-01-02 17:00:00,27.5,20.9,30.03,WSW,248,3.0,13.0,76,0.00,,SKC,0.00,VWS V14.01,2013-01-02 22:00:00,
2013-01-02 17:15:00,27.3,20.1,30.02,SW,225,3.0,11.0,74,0.00,,SKC,0.00,VWS V14.01,2013-01-02 22:15:00,
2013-01-02 17:30:00,27.3,20.4,30.03,SW,225,2.0,12.0,75,0.00,,SKC,0.00,VWS V14.01,2013-01-02 22:30:00,
2013-01-02 17:45:00,27.2,20.3,30.03,SSW,202,2.0,11.0,75,0.00,,SKC,0.00,VWS V14.01,2013-01-02 22:45:00,
2013-01-02 18:00:00,27.0,20.5,30.04,SSW,202,2.0,9.0,76,0.00,,SKC,0.00,VWS V14.01,2013-01-02 23:00:00,
2013-01-02 18:15:00,26.9,20.4,30.04,SSW,202,2.0,15.0,76,0.00,,SKC,0.00,VWS V14.01,2013-01-02 23:15:00,
2013-01-02 18:30:00,26.7,19.9,30.04,SSW,202,2.0,13.0,75,0.00,,SKC,0.00,VWS V14.01,2013-01-02 23:30:00,
2013-01-02 18:45:00,26.6,18.8,30.04,SW,225,1.0,10.0,72,0.00,,SKC,0.00,VWS V14.01,2013-01-02 23:45:00,
2013-01-02 19:00:00,26.4,17.3,30.06,SW,225,5.0,14.0,68,0.00,,SKC,0.00,VWS V14.01,2013-01-03 00:00:00,
2013-01-02 19:15:00,26.3,18.8,30.07,SW,225,6.0,14.0,73,0.00,,SKC,0.00,VWS V14.01,2013-01-03 00:15:00,
2013-01-02 19:30:00,26.1,19.0,30.08,West,270,4.0,11.0,74,0.00,,SKC,0.00,VWS V14.01,2013-01-03 00:30:00,
2013-01-02 19:45:00,26.0,20.4,30.08,SW,225,3.0,10.0,79,0.00,,SKC,0.00,VWS V14.01,2013-01-03 00:45:00,
2013-01-02 20:00:00,25.8,20.5,30.08,SW,225,3.0,13.0,80,0.00,,SKC,0.00,VWS V14.01,2013-01-03 01:00:00,
2013-01-02 20:15:00,25.7,20.4,30.07,WSW,248,3.0,10.0,80,0.00,,SKC,0.00,VWS V14.01,2013-01-03 01:15:00,
2013-01-02 20:30:00,25.7,20.1,30.07,SW,225,2.0,10.0,79,0.00,,SKC,0.00,VWS V14.01,2013-01-03 01:30:00,
2013-01-02 20:45:00,25.7,19.8,30.07,SW,225,2.0,10.0,78,0.00,,SKC,0.00,VWS V14.01,2013-01-03 01:45:00,
2013-01-02 21:00:00,25.6,18.5,30.08,SW,225,3.0,11.0,74,0.00,,SKC,0.00,VWS V14.01,2013-01-03 02:00:00,
2013-01-02 21:15:00,25.6,18.5,30.07,SW,225,2.0,9.0,74,0.00,,SKC,0.00,VWS V14.01,2013-01-03 02:15:00,
2013-01-02 21:30:00,25.6,18.2,30.08,SW,225,4.0,11.0,73,0.00,,SKC,0.00,VWS V14.01,2013-01-03 02:30:00,
2013-01-02 21:45:00,25.6,17.2,30.09,SW,225,3.0,12.0,70,0.00,,SKC,0.00,VWS V14.01,2013-01-03 02:45:00,
2013-01-02 22:00:00,25.7,16.6,30.09,SW,225,3.0,12.0,68,0.00,,SKC,0.00,VWS V14.01,2013-01-03 03:00:00,
2013-01-02 22:15:00,26.0,12.9,30.08,SW,225,2.0,7.0,57,0.00,,SKC,0.00,VWS V14.01,2013-01-03 03:15:00,
2013-01-02 22:30:00,27.0,4.8,30.08,SW,225,2.0,10.0,38,0.00,,SKC,0.00,VWS V14.01,2013-01-03 03:30:00,
2013-01-02 22:45:00,27.0,7.5,30.10,SW,225,2.0,10.0,43,0.00,,SKC,0.00,VWS V14.01,2013-01-03 03:45:00,
2013-01-02 23:00:00,26.6,12.2,30.09,WSW,248,2.0,8.0,54,0.00,,SKC,0.00,VWS V14.01,2013-01-03 04:00:00,
2013-01-02 23:15:00,26.3,9.8,30.09,WSW,248,0.0,5.0,49,0.00,,SKC,0.00,VWS V14.01,2013-01-03 04:15:00,
2013-01-02 23:30:00,26.3,12.8,30.09,WSW,248,0.0,0.0,56,0.00,,SKC,0.00,VWS V14.01,2013-01-03 04:30:00,
2013-01-02 23:45:00,26.6,10.9,30.08,WSW,248,1.0,6.0,51,0.00,,SKC,0.00,VWS V14.01,2013-01-03 04:45:00,